When you browse on this site, cookies collect data to enhance your experience and personalize the content and advertising you see.
Visit our Privacy Policy to learn more. By continuing to use the site, you agree to this use of cookies and data.
  • In Switzerland
  • List of Countries
  • For 7 days
  • Water Temperature
  • Satellite Maps
  • Weather Map
  • Weather Widgets
  • user-avatar
    Login

    Hourly Weather Hefei

    Today, 22 July, Monday

    Time Temperature Precipitation Wind Pressure Humidity
    00:00 +30°C° 0 mm 2 mps 750 mmHg 78%
    01:00 +30°C° 0 mm 2 mps 749 mmHg 79%
    02:00 +30°C° 0 mm 2 mps 749 mmHg 74%
    03:00 +30°C° 0 mm 2 mps 749 mmHg 76%
    04:00 +30°C° 0 mm 2 mps 749 mmHg 77%
    05:00 +29°C° 0 mm 2 mps 749 mmHg 78%
    06:00 +30°C° 0 mm 2 mps 749 mmHg 78%
    07:00 +31°C° 0 mm 2 mps 750 mmHg 77%
    08:00 +32°C° 0 mm 2 mps 750 mmHg 78%
    09:00 +34°C° 0 mm 2 mps 750 mmHg 73%
    10:00 +35°C° 0 mm 2 mps 749 mmHg 67%
    11:00 +37°C° 0 mm 2 mps 749 mmHg 62%
    12:00 +37°C° 0 mm 3 mps 748 mmHg 60%
    13:00 +38°C° 0 mm 3 mps 748 mmHg 58%
    14:00 +38°C° 0 mm 3 mps 748 mmHg 54%
    15:00 +38°C° 0 mm 3 mps 748 mmHg 55%
    16:00 +38°C° 0 mm 3 mps 747 mmHg 57%
    17:00 +37°C° 0 mm 3 mps 747 mmHg 58%
    18:00 +36°C° 0 mm 3 mps 747 mmHg 62%
    19:00 +35°C° 0 mm 3 mps 748 mmHg 67%
    20:00 +34°C° 0 mm 2 mps 748 mmHg 71%
    21:00 +32°C° 0 mm 2 mps 748 mmHg 73%
    22:00 +33°C° 0 mm 3 mps 748 mmHg 75%
    23:00 +31°C° 0 mm 3 mps 748 mmHg 77%

    Tomorrow, 23 July, Tuesday

    Time Temperature Precipitation Wind Pressure Humidity
    00:00 +31°C° 0 mm 3 mps 748 mmHg 77%
    01:00 +31°C° 0 mm 3 mps 748 mmHg 78%
    02:00 +30°C° 0 mm 3 mps 748 mmHg 78%
    03:00 +30°C° 0 mm 3 mps 747 mmHg 80%
    04:00 +30°C° 0 mm 3 mps 747 mmHg 81%
    05:00 +29°C° 0 mm 2 mps 747 mmHg 83%
    06:00 +30°C° 0 mm 3 mps 748 mmHg 80%
    07:00 +31°C° 0 mm 3 mps 748 mmHg 77%
    08:00 +34°C° 0 mm 3 mps 749 mmHg 74%
    09:00 +35°C° 0.3 mm 3 mps 748 mmHg 69%
    10:00 +36°C° 0.3 mm 3 mps 748 mmHg 64%
    11:00 +37°C° 0.3 mm 2 mps 748 mmHg 59%
    12:00 +38°C° 0.4 mm 2 mps 748 mmHg 57%
    13:00 +38°C° 0.4 mm 2 mps 747 mmHg 56%
    14:00 +39°C° 0.4 mm 2 mps 747 mmHg 54%
    15:00 +38°C° 0 mm 2 mps 747 mmHg 56%
    16:00 +38°C° 0 mm 2 mps 747 mmHg 58%
    17:00 +38°C° 0 mm 2 mps 747 mmHg 61%
    18:00 +36°C° 0 mm 3 mps 747 mmHg 66%
    19:00 +35°C° 0 mm 3 mps 747 mmHg 71%
    20:00 +33°C° 0 mm 3 mps 747 mmHg 76%
    21:00 +33°C° 0 mm 3 mps 747 mmHg 76%
    22:00 +33°C° 0 mm 3 mps 748 mmHg 77%
    23:00 +31°C° 0 mm 3 mps 748 mmHg 78%

    Day after tomorrow, 24 July, Wednesday

    Time Temperature Precipitation Wind Pressure Humidity
    00:00 +31°C° 0.1 mm 3 mps 748 mmHg 79%
    01:00 +30°C° 0.1 mm 2 mps 748 mmHg 81%
    02:00 +30°C° 0.1 mm 2 mps 748 mmHg 82%
    03:00 +30°C° 0.1 mm 2 mps 748 mmHg 83%
    04:00 +30°C° 0.1 mm 2 mps 748 mmHg 84%
    05:00 +29°C° 0.1 mm 2 mps 748 mmHg 85%
    06:00 +30°C° 0.3 mm 2 mps 748 mmHg 82%
    07:00 +32°C° 0.3 mm 2 mps 748 mmHg 79%
    08:00 +34°C° 0.3 mm 2 mps 749 mmHg 75%
    09:00 +35°C° 1.3 mm 2 mps 749 mmHg 70%
    10:00 +36°C° 1.3 mm 2 mps 749 mmHg 66%
    11:00 +37°C° 1.3 mm 2 mps 749 mmHg 61%
    12:00 +38°C° 0.1 mm 2 mps 748 mmHg 58%
    13:00 +39°C° 0.1 mm 1 mps 748 mmHg 54%
    14:00 +39°C° 0.1 mm 1 mps 748 mmHg 51%
    15:00 +39°C° 0 mm 1 mps 748 mmHg 54%
    16:00 +38°C° 0 mm 2 mps 747 mmHg 57%
    17:00 +38°C° 0 mm 2 mps 747 mmHg 60%
    18:00 +36°C° 0 mm 2 mps 747 mmHg 65%
    19:00 +35°C° 0 mm 3 mps 748 mmHg 71%
    20:00 +34°C° 0 mm 3 mps 748 mmHg 76%
    21:00 +33°C° 0 mm 3 mps 748 mmHg 77%
    22:00 +32°C° 0 mm 2 mps 749 mmHg 78%
    23:00 +31°C° 0 mm 2 mps 749 mmHg 79%

    25 July, Thursday

    Time Temperature Precipitation Wind Pressure Humidity
    00:00 +31°C° 0.1 mm 2 mps 749 mmHg 80%
    01:00 +31°C° 0.1 mm 2 mps 749 mmHg 82%
    02:00 +30°C° 0.1 mm 2 mps 748 mmHg 83%
    03:00 +30°C° 0 mm 2 mps 748 mmHg 83%
    04:00 +30°C° 0 mm 2 mps 748 mmHg 84%
    05:00 +30°C° 0 mm 2 mps 748 mmHg 84%
    06:00 +31°C° 0 mm 2 mps 749 mmHg 81%
    07:00 +32°C° 0 mm 2 mps 749 mmHg 78%
    08:00 +34°C° 0 mm 2 mps 749 mmHg 75%
    09:00 +35°C° 1.1 mm 2 mps 749 mmHg 69%
    10:00 +37°C° 1.1 mm 3 mps 749 mmHg 63%
    11:00 +38°C° 1.1 mm 3 mps 749 mmHg 57%
    12:00 +39°C° 0 mm 3 mps 749 mmHg 55%
    13:00 +39°C° 0 mm 3 mps 748 mmHg 52%
    14:00 +40°C° 0 mm 3 mps 748 mmHg 50%
    15:00 +39°C° 0 mm 3 mps 748 mmHg 54%
    16:00 +39°C° 0 mm 3 mps 747 mmHg 57%
    17:00 +38°C° 0 mm 3 mps 747 mmHg 61%
    18:00 +36°C° 0.4 mm 3 mps 747 mmHg 66%
    19:00 +35°C° 0.4 mm 3 mps 748 mmHg 72%
    20:00 +32°C° 0.4 mm 2 mps 748 mmHg 77%
    21:00 +32°C° 0.1 mm 2 mps 748 mmHg 79%
    22:00 +31°C° 0.1 mm 2 mps 748 mmHg 80%
    23:00 +31°C° 0.1 mm 2 mps 748 mmHg 81%

    26 July, Friday

    Time Temperature Precipitation Wind Pressure Humidity
    00:00 +31°C° 0 mm 2 mps 748 mmHg 82%
    01:00 +30°C° 0 mm 2 mps 748 mmHg 82%
    02:00 +30°C° 0 mm 2 mps 747 mmHg 83%
    03:00 +30°C° 0 mm 2 mps 747 mmHg 83%
    04:00 +30°C° 0 mm 2 mps 748 mmHg 83%
    05:00 +29°C° 0 mm 2 mps 748 mmHg 84%
    06:00 +30°C° 0.2 mm 2 mps 748 mmHg 81%
    07:00 +31°C° 0.2 mm 2 mps 748 mmHg 78%
    08:00 +32°C° 0.2 mm 2 mps 749 mmHg 76%
    09:00 +35°C° 1.3 mm 2 mps 749 mmHg 71%
    10:00 +36°C° 1.3 mm 2 mps 749 mmHg 66%
    11:00 +37°C° 1.3 mm 2 mps 749 mmHg 62%
    12:00 +37°C° 0.6 mm 2 mps 748 mmHg 63%
    13:00 +37°C° 0.6 mm 2 mps 748 mmHg 65%
    14:00 +36°C° 0.6 mm 2 mps 747 mmHg 67%
    15:00 +36°C° 0.2 mm 2 mps 747 mmHg 69%
    16:00 +36°C° 0.2 mm 2 mps 747 mmHg 71%
    17:00 +35°C° 0.2 mm 2 mps 747 mmHg 73%
    18:00 +35°C° 0 mm 2 mps 747 mmHg 74%
    19:00 +34°C° 0 mm 2 mps 747 mmHg 76%
    20:00 +32°C° 0 mm 2 mps 747 mmHg 77%
    21:00 +32°C° 0 mm 2 mps 748 mmHg 78%
    22:00 +31°C° 0 mm 2 mps 748 mmHg 79%
    23:00 +31°C° 0 mm 3 mps 748 mmHg 80%

    27 July, Saturday

    Time Temperature Precipitation Wind Pressure Humidity
    00:00 +31°C° 0 mm 3 mps 748 mmHg 81%
    01:00 +30°C° 0 mm 3 mps 747 mmHg 82%
    02:00 +30°C° 0 mm 3 mps 747 mmHg 82%
    03:00 +30°C° 0 mm 3 mps 747 mmHg 83%
    04:00 +30°C° 0 mm 3 mps 747 mmHg 84%
    05:00 +30°C° 0 mm 3 mps 747 mmHg 85%
    06:00 +31°C° 0.3 mm 3 mps 748 mmHg 83%
    07:00 +31°C° 0.3 mm 2 mps 748 mmHg 81%
    08:00 +32°C° 0.3 mm 2 mps 748 mmHg 80%
    09:00 +34°C° 1.3 mm 2 mps 748 mmHg 74%
    10:00 +35°C° 1.3 mm 2 mps 748 mmHg 69%
    11:00 +37°C° 1.3 mm 2 mps 748 mmHg 63%
    12:00 +37°C° 0 mm 2 mps 748 mmHg 63%
    13:00 +37°C° 0 mm 3 mps 748 mmHg 64%
    14:00 +37°C° 0 mm 3 mps 748 mmHg 64%
    15:00 +37°C° 0.4 mm 3 mps 748 mmHg 66%
    16:00 +36°C° 0.4 mm 3 mps 747 mmHg 68%
    17:00 +36°C° 0.4 mm 3 mps 747 mmHg 70%
    18:00 +35°C° 0.2 mm 3 mps 747 mmHg 73%
    19:00 +34°C° 0.2 mm 3 mps 748 mmHg 76%
    20:00 +33°C° 0.2 mm 3 mps 748 mmHg 79%
    21:00 +33°C° 0 mm 3 mps 748 mmHg 80%
    22:00 +31°C° 0 mm 3 mps 748 mmHg 81%
    23:00 +32°C° 0 mm 4 mps 748 mmHg 82%
    Show more